• Join FlightAware (Why Join?)
  • Login
  • US Flag 
09:36PM EST


 

Airport Tracker/Info


-or-


 

Live Flight TrackerFlight Track Log ✈ N8921B ✈ 16-May-2012 ✈ KDTW - KRIC

Flight Track Log - Related Links

Times and Time Zones

All times are in EDT time to prevent confusion due to time zone crossing. See the N8921B flight status page for this flight to view local times or setup timezone preferences in your user account.

Time Position Orientation Groundspeed Altitude Reporting Facility
EDT Latitude Longitude Course Direction KTS MPH feet Rate Location/Type
02:52PM 42.2325 -83.3333 53° Northeast 147 169 1,200  Level FAA TRACON SMA TRACON (SMA)
02:52PM 42.2503 -83.3019 53° Northeast 172 198 2,400 1,899 Climbing FAA TRACON SMA TRACON (SMA)
02:53PM 42.2728 -83.2619 53° Northeast 207 238 3,700 1,704 Climbing FAA TRACON SMA TRACON (SMA)
02:54PM 42.3003 -83.2131 73° East 258 297 4,700 2,370 Climbing FAA TRACON SMA TRACON (SMA)
02:54PM 42.3142 -83.1514 109° East 269 310 6,900 2,506 Climbing FAA TRACON SMA TRACON (SMA)
02:55PM 42.2969 -83.0822 115° Southeast 307 353 8,000 2,250 Climbing FAA TRACON SMA TRACON (SMA)
02:56PM 42.2719 -83.0097 116° Southeast 321 369 9,900 2,370 Climbing FAA TRACON SMA TRACON (SMA)
02:56PM 42.2450 -82.9336 115° Southeast 323 372 11,200 1,671 Climbing FAA TRACON SMA TRACON (SMA)
02:57PM 42.2178 -82.8542 115° Southeast 357 411 12,100 1,275 Climbing FAA TRACON SMA TRACON (SMA)
02:58PM 42.1883 -82.7703 115° Southeast 375 432 12,900 1,630 Climbing FAA TRACON SMA TRACON (SMA)
02:58PM 42.1583 -82.6836 117° Southeast 385 443 14,300 1,899 Climbing FAA TRACON SMA TRACON (SMA)
02:59PM 42.1236 -82.5933 112° Southeast 382 440 15,400 1,514 Climbing Cleveland Center
03:00PM 42.0822 -82.4547 102° East 387 445 17,100 1,364 Climbing Cleveland Center
03:01PM 42.0539 -82.2694 102° East 399 459 18,400 1,250 Climbing Cleveland Center
03:02PM 42.0289 -82.1094 134° Southeast 414 476 19,600 1,100 Climbing Cleveland Center
03:03PM 41.9472 -81.9958 144° Southeast 410 472 20,600 1,000 Climbing Cleveland Center
03:04PM 41.8625 -81.9131 145° Southeast 420 483 21,600 1,100 Climbing Cleveland Center
03:05PM 41.7636 -81.8192 144° Southeast 426 490 22,800 1,200 Climbing Cleveland Center
03:06PM 41.6667 -81.7256 155° Southeast 431 496 24,000 1,250 Climbing Cleveland Center
03:07PM 41.5608 -81.6597 157° South 425 489 25,300 1,050 Climbing Cleveland Center
03:08PM 41.4428 -81.5942 158° South 417 480 26,100 750 Climbing Cleveland Center
03:09PM 41.3411 -81.5400 157° South 423 487 26,800 450 Climbing Cleveland Center
03:10PM 41.2517 -81.4889 158° South 433 498 27,000 100 Climbing Cleveland Center
03:11PM 41.1375 -81.4267 158° South 439 505 27,000  Level Cleveland Center
03:12PM 40.9819 -81.3422 157° South 455 524 27,000  Level Cleveland Center
03:13PM 40.8781 -81.2833 158° South 455 524 27,000  Level Cleveland Center
03:14PM 40.7283 -81.2022 158° South 450 518 27,000  Level Cleveland Center
03:15PM 40.6264 -81.1467 157° South 450 518 27,000  Level Cleveland Center
03:16PM 40.5122 -81.0828 157° South 450 518 27,000  Level Cleveland Center
03:17PM 40.3956 -81.0192 157° South 450 518 27,000  Level Cleveland Center
03:18PM 40.2792 -80.9558 157° South 450 518 27,000  Level Cleveland Center
03:19PM 40.1647 -80.8928 157° South 450 518 27,000  Level Cleveland Center
03:20PM 40.0503 -80.8300 152° Southeast 450 518 27,000  Level Cleveland Center
03:21PM 39.9419 -80.7536 147° Southeast 450 518 27,000  Level Cleveland Center
03:22PM 39.8358 -80.6642 147° Southeast 450 518 27,000  Level Cleveland Center
03:23PM 39.7317 -80.5750 147° Southeast 450 518 27,000  Level Cleveland Center
03:26PM 39.4856 -80.3700 148° Southeast 420 483 27,000  Level Washington Center
03:27PM 39.3783 -80.2850 148° Southeast 430 495 27,000  Level Washington Center
03:28PM 39.2753 -80.2006 148° Southeast 436 502 27,000  Level Washington Center
03:29PM 39.1722 -80.1164 147° Southeast 442 509 27,000 -198 Level Washington Center
03:30PM 39.0672 -80.0272 151° Southeast 442 509 26,600 -915 Descending Washington Center
03:31PM 38.9514 -79.9453 149° Southeast 437 503 25,200 -807 Descending Washington Center
03:32PM 38.8478 -79.8644 147° Southeast 432 497 25,000 -98 Descending Washington Center
03:33PM 38.7486 -79.7817 148° Southeast 432 497 25,000  Level Washington Center
03:34PM 38.6472 -79.7014 147° Southeast 432 497 25,000  Level Washington Center
03:35PM 38.5539 -79.6244 149° Southeast 437 503 25,000 -298 Level Washington Center
03:36PM 38.4503 -79.5447 147° Southeast 437 503 24,400 -900 Descending Washington Center
03:37PM 38.3506 -79.4625 148° Southeast 437 503 23,200 -1,240 Descending Washington Center
03:38PM 38.2531 -79.3861 148° Southeast 431 496 21,900 -1,091 Descending Washington Center
03:39PM 38.1472 -79.3014 148° Southeast 416 479 21,000 -458 Descending Washington Center
03:40PM 38.0514 -79.2256 148° Southeast 411 473 21,000  Level Washington Center
03:41PM 37.9578 -79.1500 132° Southeast 405 466 21,000  Level Washington Center
03:42PM 37.8858 -79.0492 110° East 382 440 21,000  Level Washington Center
03:43PM 37.8478 -78.9158 110° East 388 447 21,000 -298 Level Washington Center
03:44PM 37.8097 -78.7828 110° East 388 447 20,400 -1,426 Descending Washington Center
03:45PM 37.7753 -78.6606 110° East 399 459 18,100 -2,400 Descending Washington Center
03:46PM 37.7369 -78.5303 110° East 399 459 15,600 -2,370 Descending Washington Center
03:47PM 37.7022 -78.4081 110° East 387 445 13,400 -2,269 Descending Washington Center
03:48PM 37.6656 -78.2808 111° Southeast 368 423 11,100 -1,983 Descending Washington Center
03:49PM 37.6344 -78.1775 112° Southeast 331 381 9,500 -1,339 Descending Washington Center
03:50PM 37.6031 -78.0794 94° East 307 353 8,400 -1,190 Descending Washington Center
03:51PM 37.5969 -77.9769 81° East 295 339 7,100 -1,140 Descending Washington Center
03:52PM 37.6092 -77.8778 79° East 284 327 6,100 -992 Descending Washington Center
03:53PM 37.6236 -77.7811 81° East 284 327 5,100 -864 Descending Washington Center
03:54PM 37.6358 -77.6819 95° East 284 327 4,400 -555 Descending Washington Center
03:55PM 37.6289 -77.5900 101° East 273 314 4,000 -295 Descending Washington Center
03:56PM 37.6158 -77.5031 98° East 261 300 3,800 -504 Descending Washington Center
03:57PM 37.6067 -77.4242 105° East 246 283 3,000 -778 Descending Washington Center
03:58PM 37.5833 -77.3167 180° South 167 192 1,700 -836 Descending Potomac TRACON
03:59PM 37.5333 -77.3167 180° South 156 180 700 -984 Descending Potomac TRACON